Volver al catálogo

FENGYUN 1C DEB

ActivoPO
NORAD 38789·DEBRIS·🇨🇳 China

Lanzado May 10, 1999 desde Taiyuan Satellite Launch Center

Loading…

Próximos Pases (próximas 24 horas)

TLE

EnvejeciendoSource: Space-Track

Época: Sep 7, 2026, 13:11 UTC

1 38789U 99025EUD 26250.54970289  .00001672  00000-0  36640-3 0  9997
2 38789  98.8280 153.6228 0202099 299.1213 184.1842 14.47319053657326

Sigue FENGYUN 1C DEB en tiempo real con AllMySat

Download on the App Store